Weather History for KAJZ - February, 2013

Change the Weather History Date:

Friday, February 1, 2013

  Actual Average (KMTJ) Record (KMTJ)
Temperature  
Mean Temperature 36 °F 29 °F  
Max Temperature 47 °F 41 °F - ()
Min Temperature 24 °F 17 °F - ()
Degree Days  
Heating Degree Days 30 36  
Month to date heating degree days 36  
Since 1 July heating degree days 3841  
Cooling Degree Days 0 0  
Month to date cooling degree days 0  
Year to date cooling degree days 0  
Moisture  
Dew Point 25 °F    
Average Humidity 71    
Maximum Humidity 91    
Minimum Humidity 42    
Precipitation  
Precipitation 0.00 in 0.01 in - ()
Month to date precipitation 0.01  
Year to date precipitation 0.66  
Sea Level Pressure  
Sea Level Pressure 30.29 in    
Wind  
Wind Speed 3 mph (North)    
Max Wind Speed 13 mph    
Max Gust Speed -    
Visibility 10 miles    
Events      
T = Trace of Precipitation, MM = Missing Value Source: NWS Daily Summary

Daily Weather History Graph

Daily Weather History Graph

Search for Another Location

Airport or City:

Trip Planner

Search our weather history database for the weather conditions in past years. The results will help you decide how hot, cold, wet, or windy it might be!

Date:

Astronomy

Feb. 01, 2013 Rise Set
Actual Time 7:17 AM MST 5:34 PM MST
Civil Twilight 6:49 AM MST 6:02 PM MST
Nautical Twilight 6:18 AM MST 6:34 PM MST
Astronomical Twilight 5:46 AM MST 7:05 PM MST
Moon 11:40 PM MST (2/1) 9:57 AM MST (2/1)
Length of Visible Light 11h 12m
Length of Day
10h 16m
Waning Gibbous, 69% of the Moon is Illuminated
Feb 1
Waning Gibbous
Feb 3
Last Quarter
Feb 10
New
Feb 17
First Quarter
Feb 25
Full

Hourly Weather History & Observations

Time (MST) Temp. Windchill Dew Point Humidity Pressure Visibility Wind Dir Wind Speed Gust Speed Precip Events Conditions
12:15 AM 31.6 °F - 25.3 °F 78% 30.30 in 10.0 mi Calm Calm - N/A   Clear
12:35 AM 32.9 °F - 23.2 °F 67% 30.30 in 10.0 mi Calm Calm - N/A   Clear
12:55 AM 31.8 °F - 23.0 °F 70% 30.29 in 10.0 mi Calm Calm - N/A   Clear
1:15 AM 30.0 °F - 23.2 °F 76% 30.29 in 10.0 mi Calm Calm - N/A   Scattered Clouds
1:35 AM 28.8 °F 25.0 °F 22.8 °F 78% 30.29 in 10.0 mi SSW 3.5 mph - N/A   Scattered Clouds
1:55 AM 27.9 °F - 22.8 °F 81% 30.30 in 10.0 mi Calm Calm - N/A   Clear
2:15 AM 27.9 °F 24.0 °F 23.0 °F 82% 30.29 in 10.0 mi NNW 3.5 mph - N/A   Clear
2:35 AM 28.4 °F 24.6 °F 23.5 °F 82% 30.29 in 10.0 mi NNW 3.5 mph - N/A   Clear
2:55 AM 27.5 °F 22.2 °F 22.8 °F 83% 30.29 in 10.0 mi North 4.6 mph - N/A   Clear
3:15 AM 28.0 °F 22.8 °F 23.0 °F 81% 30.28 in 10.0 mi NNE 4.6 mph - N/A   Clear
3:35 AM 27.5 °F 23.6 °F 22.6 °F 82% 30.28 in 10.0 mi South 3.5 mph - N/A   Clear
3:55 AM 24.8 °F - 22.5 °F 91% 30.28 in 10.0 mi Calm Calm - N/A   Clear
4:15 AM 25.3 °F 21.1 °F 23.2 °F 91% 30.28 in 10.0 mi North 3.5 mph - N/A   Clear
4:35 AM 26.1 °F 19.4 °F 23.2 °F 89% 30.28 in 10.0 mi NNE 5.8 mph - N/A   Clear
4:55 AM 26.8 °F 19.3 °F 23.0 °F 86% 30.28 in 10.0 mi NNE 6.9 mph - N/A   Clear
5:15 AM 27.0 °F 19.5 °F 23.0 °F 85% 30.28 in 10.0 mi NNE 6.9 mph - N/A   Clear
5:35 AM 27.5 °F 21.1 °F 22.8 °F 83% 30.28 in 10.0 mi NNE 5.8 mph - N/A   Scattered Clouds
6:15 AM 26.1 °F 21.9 °F 21.9 °F 84% 30.28 in 10.0 mi ENE 3.5 mph - N/A   Clear
6:35 AM 25.9 °F - 21.6 °F 84% 30.28 in 10.0 mi Calm Calm - N/A   Clear
6:55 AM 25.2 °F - 22.1 °F 88% 30.28 in 10.0 mi Calm Calm - N/A   Scattered Clouds
7:15 AM 25.3 °F - 22.6 °F 89% 30.29 in 10.0 mi Calm Calm - N/A   Overcast
7:35 AM 25.3 °F - 22.8 °F 90% 30.30 in 10.0 mi Calm Calm - N/A   Overcast
7:55 AM 26.4 °F - 23.0 °F 87% 30.30 in 10.0 mi Calm Calm - N/A   Scattered Clouds
8:15 AM 27.3 °F - 23.2 °F 84% 30.31 in 10.0 mi Calm Calm - N/A   Clear
8:35 AM 29.1 °F - 23.7 °F 80% 30.31 in 10.0 mi Calm Calm - N/A   Clear
8:55 AM 30.6 °F - 23.9 °F 76% 30.31 in 10.0 mi Calm Calm - N/A   Clear
9:15 AM 31.6 °F - 24.1 °F 74% 30.31 in 10.0 mi Calm Calm - N/A   Clear
9:35 AM 32.5 °F - 24.3 °F 72% 30.31 in 10.0 mi Calm Calm - N/A   Clear
9:55 AM 34.7 °F - 24.6 °F 67% 30.31 in 10.0 mi Calm Calm - N/A   Clear
10:15 AM 35.4 °F - 24.1 °F 63% 30.31 in 10.0 mi Calm Calm - N/A   Clear
10:35 AM 37.2 °F - 25.5 °F 63% 30.31 in 10.0 mi Calm Calm - N/A   Clear
10:55 AM 37.9 °F - 24.4 °F 58% 30.31 in 10.0 mi Calm Calm - N/A   Clear
11:15 AM 38.8 °F - 20.3 °F 47% 30.30 in 10.0 mi Calm Calm - N/A   Clear
11:35 AM 39.6 °F - 23.9 °F 54% 30.30 in 10.0 mi Calm Calm - N/A   Clear
11:55 AM 40.5 °F - 24.6 °F 53% 30.30 in 10.0 mi Calm Calm - N/A   Clear
12:15 PM 41.7 °F - 24.6 °F 51% 30.28 in 10.0 mi Calm Calm - N/A   Clear
12:35 PM 42.8 °F - 24.3 °F 48% 30.27 in 10.0 mi Calm Calm - N/A   Clear
12:55 PM 43.7 °F - 22.1 °F 42% 30.26 in 10.0 mi Calm Calm - N/A   Clear
1:15 PM 44.6 °F - 24.8 °F 46% 30.25 in 10.0 mi Calm Calm - N/A   Clear
1:35 PM 45.0 °F - 24.8 °F 45% 30.24 in 10.0 mi Calm Calm - N/A   Clear
1:55 PM 45.5 °F - 24.1 °F 43% 30.24 in 10.0 mi Calm Calm - N/A   Clear
2:15 PM 46.0 °F - 24.4 °F 43% 30.23 in 10.0 mi Calm Calm - N/A   Clear
2:35 PM 46.4 °F 45.2 °F 24.6 °F 42% 30.23 in 10.0 mi WNW 3.5 mph - N/A   Clear
2:55 PM 47.1 °F - 25.5 °F 43% 30.23 in 10.0 mi West 5.8 mph - N/A   Clear
3:15 PM 47.5 °F - 26.2 °F 44% 30.24 in 10.0 mi SSW 6.9 mph - N/A   Clear
3:35 PM 46.6 °F - 30.2 °F 53% 30.24 in 10.0 mi WSW 9.2 mph - N/A   Clear
3:55 PM 45.7 °F 42.7 °F 30.2 °F 55% 30.24 in 10.0 mi West 5.8 mph - N/A   Clear
4:15 PM 45.3 °F 39.7 °F 30.7 °F 57% 30.24 in 10.0 mi WSW 11.5 mph - N/A   Clear
4:35 PM 44.6 °F 38.4 °F 30.2 °F 57% 30.25 in 10.0 mi SW 12.7 mph - N/A   Clear
4:55 PM 43.7 °F 38.1 °F 30.6 °F 60% 30.24 in 10.0 mi SW 10.4 mph - N/A   Clear
5:15 PM 41.9 °F 37.5 °F 30.2 °F 63% 30.25 in 10.0 mi SW 6.9 mph - N/A   Clear
5:35 PM 39.9 °F 33.4 °F 29.3 °F 66% 30.25 in 10.0 mi SW 10.4 mph - N/A   Clear
5:55 PM 38.1 °F 33.7 °F 28.9 °F 70% 30.26 in 10.0 mi SW 5.8 mph - N/A   Clear
6:15 PM 36.5 °F 29.7 °F 28.2 °F 72% 30.27 in 10.0 mi SW 9.2 mph - N/A   Clear
6:55 PM 34.9 °F 30.8 °F 28.2 °F 77% 30.30 in 10.0 mi NNE 4.6 mph - N/A   Clear
7:15 PM 34.0 °F 31.0 °F 28.9 °F 82% 30.30 in 10.0 mi North 3.5 mph - N/A   Clear
7:35 PM 33.4 °F 28.1 °F 28.4 °F 82% 30.31 in 10.0 mi NNE 5.8 mph - N/A   Clear
7:55 PM 33.3 °F 27.9 °F 28.2 °F 82% 30.32 in 10.0 mi NNE 5.8 mph - N/A   Clear
8:15 PM 32.9 °F 27.5 °F 28.0 °F 82% 30.32 in 10.0 mi NNE 5.8 mph - N/A   Clear
8:35 PM 32.5 °F 27.1 °F 27.5 °F 82% 30.34 in 10.0 mi NE 5.8 mph - N/A   Clear
8:55 PM 32.2 °F 28.9 °F 27.5 °F 83% 30.34 in 10.0 mi NNE 3.5 mph - N/A   Clear
9:15 PM 32.9 °F 27.5 °F 27.7 °F 81% 30.35 in 10.0 mi NE 5.8 mph - N/A   Clear
9:35 PM 32.0 °F 26.4 °F 27.3 °F 83% 30.36 in 10.0 mi NE 5.8 mph - N/A   Clear
9:55 PM 31.3 °F 27.9 °F 26.8 °F 83% 30.36 in 10.0 mi NNE 3.5 mph - N/A   Clear
10:15 PM 31.1 °F 25.4 °F 26.6 °F 83% 30.37 in 10.0 mi NE 5.8 mph - N/A   Clear
10:35 PM 31.3 °F 27.9 °F 26.8 °F 83% 30.38 in 10.0 mi East 3.5 mph - N/A   Clear
10:55 PM 31.5 °F 24.9 °F 27.1 °F 84% 30.38 in 10.0 mi NE 6.9 mph - N/A   Clear
11:15 PM 32.0 °F 25.6 °F 26.4 °F 80% 30.38 in 10.0 mi NE 6.9 mph - N/A   Clear
11:35 PM 32.0 °F 25.6 °F 25.5 °F 77% 30.38 in 10.0 mi NE 6.9 mph - N/A   Clear
11:55 PM 31.5 °F 28.1 °F 25.7 °F 79% 30.38 in 10.0 mi SE 3.5 mph - N/A   Clear